Flag for U.S.A. Weather past 2 weeks in Boston, Massachusetts, U.S.A.

Now
32 °F

Partly cloudy.


Feels Like: 22 °F
Forecast: 19 / 36 °F
Wind: 13 mph from West

Location: Logan International Airport

Current Time: Jan 25, 2015 at 5:25:17 AM

Latest Report: Jan 25, 2015 at 4:54 AM


Visibility: 10 mi

Pressure: 29.43 "Hg

Humidity: 79%

Dew point: 26 °F

Location of BostonLocation

Historic Weather in Boston — Graph

°F

Boston temperature yesterday

Maximum temperature yesterday: 34 °F (at 4:54 AM)
Minimum temperature yesterday: 31 °F (at 12:54 AM)
Average temperature yesterday: 32 °F

Past Weeks' High & Low Weather Summary

 TemperatureHumidityPressure
High50 °F (Jan 18, 2:54 PM)100% (Jan 12, 2:57 PM)30.66 "Hg (Jan 12, 2:57 PM)
Low9 °F (Jan 17, 7:54 AM)25% (Jan 17, 1:54 PM)29.16 "Hg (Jan 24, 4:54 PM)
Average29 °F62%30.10 "Hg
* Reported Jan 10 3:54 AM — Jan 25 3:54 AM, Boston, Weather by CustomWeather, © 2014

Note: Actual official high and low records may vary slightly from our data, if they occured in-between our weather recording intervals... More about our weather records

Advertising

Boston weather history for previous 24 hours

 ConditionsComfort  
Time TempWeatherWind HumidityBarometerVisibility
3:54 AM
Jan 25
32 °FPassing clouds.13 mph75%29.41 "Hg10 mi
2:54 AM32 °FPassing clouds.14 mph75%29.37 "Hg10 mi
1:54 AM32 °FPassing clouds.15 mph75%29.34 "Hg10 mi
12:54 AM32 °FPassing clouds.15 mph75%29.31 "Hg10 mi
11:54 PM
Jan 24
33 °FClear.17 mph70%29.28 "Hg10 mi
10:54 PM32 °FPassing clouds.10 mph82%29.27 "Hg10 mi
9:54 PM32 °FPassing clouds.9 mph88%29.26 "Hg10 mi
8:54 PM32 °FLight snow. Ice fog.12 mph88%29.24 "Hg1 mi
7:54 PM32 °FLight snow. Ice fog.13 mph92%29.21 "Hg1 mi
6:54 PM32 °FLight snow. Ice fog.13 mph92%29.20 "Hg1 mi
5:54 PM32 °FLight snow. Ice fog.10 mph92%29.20 "Hg1 mi
4:54 PM32 °FLight snow. Ice fog.12 mph92%29.16 "Hg1 mi
3:54 PM33 °FDrizzle. Fog.15 mph88%29.21 "Hg1 mi
2:54 PM33 °FLight rain. Fog.14 mph92%29.29 "Hg1 mi
1:54 PM33 °FLight rain. Fog.13 mph92%29.32 "Hg1 mi
12:54 PM33 °FLight rain. Fog.12 mph96%29.39 "Hg1 mi
11:54 AM33 °FLight rain. Fog.13 mph96%29.47 "Hg0 mi
10:54 AM33 °FSnow. Fog.9 mph96%29.56 "Hg0 mi
9:54 AM32 °FSnow. Fog.6 mph100%29.61 "Hg0 mi
8:54 AM32 °FLight snow. Fog.7 mph96%29.65 "Hg0 mi
7:54 AM32 °FSnow. Fog.3 mph96%29.71 "Hg0 mi
6:54 AM32 °FSnow. Fog.3 mph96%29.77 "Hg0 mi
6:01 AM32 °FLight snow. Ice fog.7 mph93%29.81 "Hg1 mi
Weather by CustomWeather, © 2014

See weather overviewHow to use our weather pages